Location: ????????
(60.4333°N, 46.4710°E)
Time: 19:33:49
(UTC+00:00)

PSLV R/B - Pass Details

Date: 25 November 2020
Orbit: 502 x 579 km, 97.8° (Epoch: 17 January)

Event Time Altitude Azimuth Distance (km) Brightness Sun altitude
Rises 13:38:29 0° 171° (S) 2,792 7.6 -10.7°
Reaches altitude 10° 13:40:40 10° 174° (S) 1,895 6.8 -10.9°
Maximum altitude 13:44:45 63° 256° (WSW) 648 4.5 -11.4°
Drops below altitude 10° 13:48:50 10° 339° (NNW) 1,889 6.6 -11.9°
Sets 13:50:59 0° 342° (NNW) 2,781 7.4 -12.1°
